Terminal Aerodrome Forecast
Issued by NWS Sterling, VA

Home | Current Version | Previous Version | Text Only | Print | Product List | Glossary On
Versions: 1 2 3 4 5 6 7 8 9 10 11 12 13 14 15 16 17 18 19 20 21
000
FTUS41 KLWX 011300 AAA
TAFCHO
TAF AMD
KCHO 011353Z 0114/0212 06005KT 2SM BR BKN006 OVC030
     FM011600 11004KT P6SM BKN100
     FM020500 00000KT P6SM SCT008 BKN200=

USA.gov is the U.S. government's official web portal to all federal, state and local government web resources and services.